When you browse on this site, cookies collect data to enhance your experience and personalize the content and advertising you see.
Visit our Privacy Policy to learn more. By continuing to use the site, you agree to this use of cookies and data.
  • In United Kingdom
  • List of Countries
  • For 7 days
  • Water Temperature
  • Satellite Maps
  • Weather Map
  • Weather Widgets
  • user-avatar
    Login

    Hourly Weather De Bilt

    Today, 26 April, Friday

    Time Temperature Precipitation Wind Pressure Humidity
    00:00 +10°C° 0.1 mm 2 mps 756 mmHg 91%
    01:00 +9°C° 0 mm 2 mps 757 mmHg 92%
    02:00 +9°C° 0 mm 2 mps 757 mmHg 93%
    03:00 +8°C° 0 mm 2 mps 757 mmHg 94%
    04:00 +9°C° 0 mm 2 mps 757 mmHg 92%
    05:00 +9°C° 0 mm 2 mps 757 mmHg 91%
    06:00 +9°C° 0 mm 3 mps 758 mmHg 90%
    07:00 +11°C° 0 mm 3 mps 758 mmHg 84%
    08:00 +12°C° 0 mm 3 mps 758 mmHg 77%
    09:00 +13°C° 0 mm 3 mps 759 mmHg 71%
    10:00 +14°C° 0 mm 3 mps 759 mmHg 65%
    11:00 +15°C° 0 mm 4 mps 759 mmHg 59%
    12:00 +17°C° 0 mm 4 mps 759 mmHg 53%
    13:00 +17°C° 0 mm 4 mps 759 mmHg 51%
    14:00 +17°C° 0 mm 3 mps 759 mmHg 50%
    15:00 +17°C° 0 mm 3 mps 759 mmHg 49%
    16:00 +16°C° 0 mm 3 mps 759 mmHg 53%
    17:00 +16°C° 0 mm 2 mps 759 mmHg 57%
    18:00 +15°C° 0 mm 2 mps 759 mmHg 62%
    19:00 +14°C° 0 mm 2 mps 759 mmHg 66%
    20:00 +13°C° 0 mm 2 mps 760 mmHg 70%
    21:00 +12°C° 0 mm 2 mps 760 mmHg 74%
    22:00 +10°C° 0 mm 3 mps 760 mmHg 76%
    23:00 +10°C° 0 mm 3 mps 759 mmHg 79%

    Tomorrow, 27 April, Saturday

    Time Temperature Precipitation Wind Pressure Humidity
    00:00 +10°C° 0 mm 3 mps 759 mmHg 81%
    01:00 +9°C° 0 mm 3 mps 759 mmHg 82%
    02:00 +9°C° 0 mm 3 mps 758 mmHg 84%
    03:00 +7°C° 0 mm 4 mps 758 mmHg 85%
    04:00 +7°C° 0.5 mm 4 mps 758 mmHg 87%
    05:00 +7°C° 0.5 mm 5 mps 758 mmHg 88%
    06:00 +8°C° 0.5 mm 5 mps 758 mmHg 90%
    07:00 +9°C° 0.2 mm 6 mps 758 mmHg 80%
    08:00 +10°C° 0.2 mm 7 mps 758 mmHg 70%
    09:00 +11°C° 0.2 mm 8 mps 758 mmHg 60%
    10:00 +11°C° 0.2 mm 8 mps 758 mmHg 58%
    11:00 +11°C° 0.2 mm 8 mps 758 mmHg 56%
    12:00 +11°C° 0.2 mm 8 mps 758 mmHg 54%
    13:00 +11°C° 0 mm 8 mps 758 mmHg 55%
    14:00 +11°C° 0 mm 9 mps 758 mmHg 55%
    15:00 +10°C° 0 mm 9 mps 758 mmHg 56%
    16:00 +10°C° 0.1 mm 8 mps 759 mmHg 59%
    17:00 +9°C° 0.1 mm 7 mps 759 mmHg 62%
    18:00 +8°C° 0.1 mm 6 mps 759 mmHg 65%
    19:00 +8°C° 0.2 mm 6 mps 760 mmHg 70%
    20:00 +7°C° 0.2 mm 5 mps 760 mmHg 74%
    21:00 +6°C° 0.2 mm 5 mps 760 mmHg 78%
    22:00 +6°C° 0.2 mm 5 mps 760 mmHg 79%
    23:00 +6°C° 0.2 mm 5 mps 760 mmHg 80%

    Day after tomorrow, 28 April, Sunday

    Time Temperature Precipitation Wind Pressure Humidity
    00:00 +6°C° 0.2 mm 5 mps 760 mmHg 80%
    01:00 +6°C° 0.1 mm 4 mps 760 mmHg 81%
    02:00 +5°C° 0.1 mm 4 mps 760 mmHg 82%
    03:00 +5°C° 0.1 mm 4 mps 760 mmHg 83%
    04:00 +5°C° 0.2 mm 4 mps 760 mmHg 83%
    05:00 +5°C° 0.2 mm 4 mps 760 mmHg 84%
    06:00 +6°C° 0.2 mm 4 mps 761 mmHg 85%
    07:00 +6°C° 0.1 mm 4 mps 761 mmHg 81%
    08:00 +7°C° 0.1 mm 5 mps 761 mmHg 78%
    09:00 +8°C° 0.1 mm 5 mps 761 mmHg 75%
    10:00 +8°C° 0.2 mm 4 mps 761 mmHg 76%
    11:00 +8°C° 0.2 mm 4 mps 761 mmHg 76%
    12:00 +10°C° 0.2 mm 4 mps 761 mmHg 77%
    13:00 +10°C° 0.5 mm 4 mps 761 mmHg 78%
    14:00 +10°C° 0.5 mm 4 mps 761 mmHg 78%
    15:00 +11°C° 0.5 mm 3 mps 761 mmHg 79%
    16:00 +10°C° 0.3 mm 3 mps 761 mmHg 81%
    17:00 +10°C° 0.3 mm 3 mps 761 mmHg 83%
    18:00 +9°C° 0.3 mm 2 mps 762 mmHg 85%
    19:00 +9°C° 0 mm 2 mps 762 mmHg 88%
    20:00 +8°C° 0 mm 2 mps 763 mmHg 90%
    21:00 +7°C° 0 mm 2 mps 763 mmHg 92%
    22:00 +7°C° 0 mm 2 mps 763 mmHg 93%
    23:00 +7°C° 0 mm 2 mps 764 mmHg 93%

    29 April, Monday

    Time Temperature Precipitation Wind Pressure Humidity
    00:00 +6°C° 0 mm 2 mps 764 mmHg 94%
    01:00 +6°C° 0 mm 2 mps 764 mmHg 94%
    02:00 +5°C° 0 mm 2 mps 764 mmHg 94%
    03:00 +5°C° 0 mm 2 mps 765 mmHg 94%
    04:00 +5°C° 0 mm 2 mps 765 mmHg 91%
    05:00 +6°C° 0 mm 2 mps 765 mmHg 89%
    06:00 +7°C° 0 mm 2 mps 766 mmHg 86%
    07:00 +9°C° 0 mm 2 mps 766 mmHg 77%
    08:00 +12°C° 0 mm 2 mps 766 mmHg 68%
    09:00 +13°C° 0 mm 3 mps 767 mmHg 59%
    10:00 +14°C° 0 mm 3 mps 767 mmHg 54%
    11:00 +16°C° 0 mm 3 mps 767 mmHg 50%
    12:00 +17°C° 0 mm 4 mps 767 mmHg 45%
    13:00 +17°C° 0 mm 3 mps 766 mmHg 46%
    14:00 +17°C° 0 mm 3 mps 766 mmHg 47%
    15:00 +17°C° 0 mm 3 mps 766 mmHg 48%
    16:00 +16°C° 0 mm 3 mps 766 mmHg 53%
    17:00 +15°C° 0 mm 2 mps 766 mmHg 57%
    18:00 +15°C° 0 mm 2 mps 767 mmHg 61%
    19:00 +13°C° 0 mm 3 mps 767 mmHg 63%
    20:00 +12°C° 0 mm 3 mps 767 mmHg 66%
    21:00 +10°C° 0 mm 4 mps 767 mmHg 68%
    22:00 +10°C° 0 mm 3 mps 767 mmHg 69%
    23:00 +9°C° 0 mm 3 mps 767 mmHg 71%

    30 April, Tuesday

    Time Temperature Precipitation Wind Pressure Humidity
    00:00 +8°C° 0 mm 2 mps 767 mmHg 72%
    01:00 +8°C° 0 mm 2 mps 767 mmHg 74%
    02:00 +7°C° 0 mm 2 mps 767 mmHg 77%
    03:00 +7°C° 0 mm 2 mps 767 mmHg 79%
    04:00 +7°C° 0 mm 2 mps 767 mmHg 80%
    05:00 +8°C° 0 mm 2 mps 767 mmHg 81%
    06:00 +8°C° 0 mm 2 mps 767 mmHg 81%
    07:00 +10°C° 0 mm 2 mps 767 mmHg 77%
    08:00 +12°C° 0 mm 2 mps 766 mmHg 73%
    09:00 +14°C° 0 mm 2 mps 766 mmHg 69%
    10:00 +15°C° 0 mm 2 mps 766 mmHg 61%
    11:00 +17°C° 0 mm 2 mps 766 mmHg 54%
    12:00 +18°C° 0 mm 3 mps 766 mmHg 47%
    13:00 +18°C° 0 mm 3 mps 765 mmHg 50%
    14:00 +17°C° 0 mm 3 mps 765 mmHg 52%
    15:00 +17°C° 0 mm 3 mps 765 mmHg 55%
    16:00 +16°C° 0 mm 3 mps 764 mmHg 58%
    17:00 +16°C° 0 mm 2 mps 764 mmHg 61%
    18:00 +15°C° 0 mm 2 mps 764 mmHg 64%
    19:00 +14°C° 0 mm 2 mps 764 mmHg 69%
    20:00 +13°C° 0 mm 2 mps 764 mmHg 74%
    21:00 +13°C° 0 mm 2 mps 764 mmHg 78%
    22:00 +12°C° 0 mm 2 mps 764 mmHg 81%
    23:00 +12°C° 0 mm 2 mps 763 mmHg 83%

    1 May, Wednesday

    Time Temperature Precipitation Wind Pressure Humidity
    00:00 +10°C° 0 mm 2 mps 763 mmHg 85%
    01:00 +9°C° 0 mm 2 mps 763 mmHg 86%
    02:00 +10°C° 0 mm 1 mps 762 mmHg 87%
    03:00 +9°C° 0 mm 1 mps 762 mmHg 89%
    04:00 +10°C° 0 mm 1 mps 762 mmHg 86%
    05:00 +10°C° 0 mm 1 mps 762 mmHg 84%
    06:00 +11°C° 0 mm 1 mps 761 mmHg 82%
    07:00 +13°C° 0 mm 1 mps 761 mmHg 72%
    08:00 +15°C° 0 mm 1 mps 761 mmHg 62%
    09:00 +18°C° 0 mm 1 mps 761 mmHg 52%
    10:00 +18°C° 0 mm 1 mps 761 mmHg 52%
    11:00 +18°C° 0 mm 1 mps 761 mmHg 52%
    12:00 +15°C° 0 mm 0 mps 760 mmHg 52%
    13:00 +16°C° 0 mm 1 mps 760 mmHg 53%
    14:00 +16°C° 0 mm 1 mps 760 mmHg 54%
    15:00 +16°C° 0 mm 1 mps 760 mmHg 56%
    16:00 +16°C° 0 mm 1 mps 759 mmHg 59%
    17:00 +15°C° 0 mm 2 mps 759 mmHg 62%
    18:00 +15°C° 0 mm 2 mps 759 mmHg 65%
    19:00 +13°C° 0 mm 2 mps 759 mmHg 71%
    20:00 +10°C° 0 mm 2 mps 759 mmHg 78%
    21:00 +9°C° 0 mm 2 mps 759 mmHg 84%
    22:00 +9°C° 0 mm 1 mps 759 mmHg 86%
    23:00 +9°C° 0 mm 1 mps 759 mmHg 87%
    Show more